CST,Max TemperatureF,Mean TemperatureF,Min TemperatureF,Max Dew PointF,MeanDew PointF,Min DewpointF,Max Humidity, Mean Humidity, Min Humidity, Max Sea Level PressureIn, Mean Sea Level PressureIn, Min Sea Level PressureIn, Max VisibilityMiles, Mean VisibilityMiles, Min VisibilityMiles, Max Wind SpeedMPH, Mean Wind SpeedMPH, Max Gust SpeedMPH,PrecipitationIn, CloudCover, Events, WindDirDegrees
2013-12-1,56,46,37,42,37,33,92,76,57,30.14,30.06,29.93,10,10,5,8,4,,0.00,0,,233
2013-12-2,56,47,38,47,41,34,93,80,70,29.92,29.80,29.72,10,9,2,8,3,,0.00,5,,128
2013-12-3,58,48,39,54,48,39,100,91,76,29.76,29.72,29.69,10,5,0,13,5,17,0.00,4,Fog,158
2013-12-4,67,57,47,60,54,43,100,89,71,29.84,29.68,29.57,10,6,0,24,8,34,0.00,6,Fog-Rain,170
2013-12-5,47,35,23,43,28,21,95,86,77,30.28,30.11,29.84,10,6,0,20,11,25,0.15,7,Snow,321
2013-12-6,23,20,18,22,18,9,94,82,67,30.55,30.36,30.24,10,6,1,16,11,22,0.00,8,Snow,348
2013-12-7,22,13,4,13,8,2,90,69,54,30.69,30.60,30.47,10,10,10,12,8,17,0.00,1,,14
2013-12-8,29,26,22,29,22,14,100,86,70,30.45,30.18,30.01,10,6,2,12,7,17,0.00,8,Snow,110
2013-12-9,29,26,23,28,20,16,94,77,66,30.30,30.23,30.08,10,10,2,17,10,21,0.00,5,Snow,276
2013-12-10,31,22,13,20,16,11,93,78,59,30.35,30.28,30.24,10,9,2,17,6,22,0.00,1,Snow,244
2013-12-11,32,22,11,24,16,3,96,79,57,30.65,30.45,30.33,10,9,5,20,6,24,0.00,0,,291
2013-12-12,27,14,2,16,7,-1,89,66,48,30.65,30.49,30.31,10,10,10,15,4,,0.00,0,,192
2013-12-13,38,29,20,34,25,16,100,81,57,30.30,30.15,30.01,10,9,2,13,7,20,0.00,4,Rain-Snow,166
2013-12-14,35,32,28,35,33,26,100,96,86,30.10,29.93,29.83,10,6,1,20,8,26,0.08,8,Snow,339
2013-12-15,32,28,24,30,25,20,92,85,77,30.20,30.13,30.06,10,8,5,16,10,22,0.00,6,,245
2013-12-16,37,32,27,33,31,27,100,91,81,30.11,30.05,30.02,7,5,2,12,5,,0.00,2,,248
2013-12-17,37,32,26,32,27,22,99,88,70,30.26,30.18,30.11,10,6,2,13,8,,0.03,5,,281
2013-12-18,44,32,21,35,25,19,92,67,44,30.28,30.15,29.98,10,10,10,16,7,23,0.00,0,,189
2013-12-19,56,50,43,50,43,36,81,78,73,30.00,29.93,29.84,10,10,10,21,15,30,0.00,2,,187
2013-12-20,64,52,41,60,53,39,97,87,81,29.86,29.81,29.75,10,9,3,22,15,31,0.10,8,Rain,215
2013-12-21,41,38,36,40,37,35,100,98,95,29.85,29.69,29.46,10,5,1,17,8,22,2.01,8,Rain-Snow-Thunderstorm,2
2013-12-22,38,34,31,37,33,28,100,92,80,30.23,29.92,29.62,10,8,2,22,11,26,0.15,8,Rain,272
2013-12-23,31,23,15,28,20,9,87,80,73,30.55,30.43,30.23,10,10,10,16,11,22,0.00,7,Snow,301
2013-12-24,24,17,10,14,7,1,79,64,42,30.63,30.53,30.40,10,10,10,14,7,17,0.00,2,Snow,221
2013-12-25,35,28,22,31,24,14,88,75,66,30.41,30.31,30.25,10,10,7,12,8,20,0.00,7,,214
2013-12-26,43,34,25,31,28,24,96,77,54,30.41,30.33,30.28,10,8,2,12,7,,0.00,0,,216
2013-12-27,50,40,30,35,32,28,88,74,55,30.40,30.33,30.27,10,10,10,10,7,,0.00,0,,203
2013-12-28,52,43,34,36,33,32,90,70,53,30.27,30.14,29.94,10,10,10,12,7,,0.00,0,,182
2013-12-29,43,32,20,35,27,16,91,81,65,30.24,30.03,29.87,10,10,7,21,10,26,0.00,6,Rain,279
2013-12-30,28,20,12,17,10,6,83,68,48,30.36,30.28,30.23,10,10,10,13,7,,0.00,2,,305
2013-12-31,39,31,23,29,22,17,78,66,51,30.42,30.29,30.20,10,10,10,17,7,24,0.00,1,,218